Date String (YYYY-MM-DD hh:mm:ss) UTC,Instrument flags,Ambient pressure (hPa),Sample flow (lpm),Bypass flow (lpm),Sample temperature (°C),Ambient temperature (°C),ASC tube jacket temperature (°C),LED temperature (°C),Box temperature (°C),Sample RH (%),Span deviation,Mass concentration (μg/m³),Mass concentration (μg/m³),Mass concentration (μg/m³)
DateTimeUTC,F1_M11,P_M11,Q1_M11,Q2_M11,T1_M11,T2_M11,T3_M11,T4_M11,T5_M11,U1_M11,ZSPAN_M11,X0_M11,X2_M11,X1_M11
2022-12-18 02:00:00,,0822.4,4.94,0.00,22.2,20.6,00.0,31.2,24.0,05.0,0000.0,0010.82,0003.33,0002.12
2022-12-18 02:01:00,,0822.4,5.03,0.00,22.2,20.6,00.0,31.2,24.0,05.0,0000.0,0010.60,0003.27,0002.10
2022-12-18 02:02:00,,0822.4,5.01,0.00,22.2,20.8,00.0,31.2,24.1,05.0,0000.0,0010.41,0003.22,0002.09
2022-12-18 02:03:00,,0822.5,4.99,0.00,22.3,21.5,00.0,31.1,24.2,05.0,0000.0,0009.49,0003.21,0002.09
2022-12-18 02:04:00,,0822.4,4.98,0.00,22.4,22.1,00.0,31.1,24.4,05.0,0000.0,0008.07,0003.21,0002.10
2022-12-18 02:05:00,,0822.4,5.04,0.00,22.4,22.0,00.0,31.2,24.4,05.0,0000.0,0007.58,0003.18,0002.09
2022-12-18 02:06:00,,0822.5,4.97,0.00,22.4,21.7,00.0,31.2,24.4,05.0,0000.0,0007.67,0003.17,0002.09
2022-12-18 02:07:00,,0822.5,5.04,0.00,22.4,21.5,00.0,31.2,24.3,05.0,0000.0,0007.58,0003.16,0002.09
2022-12-18 02:08:00,,0822.5,4.96,0.00,22.4,21.3,00.0,31.2,24.3,05.0,0000.0,0007.66,0003.13,0002.08
2022-12-18 02:09:00,,0822.4,5.03,0.00,22.4,21.2,00.0,31.2,24.2,05.0,0000.0,0007.82,0003.08,0002.08
2022-12-18 02:10:00,,0822.4,4.95,0.00,22.4,21.1,00.0,31.2,24.2,05.0,0000.0,0008.15,0003.11,0002.09
2022-12-18 02:11:00,,0822.4,5.03,0.00,22.4,21.0,00.0,31.2,24.2,05.0,0000.0,0008.46,0003.14,0002.10
2022-12-18 02:12:00,,0822.4,5.01,0.00,22.4,21.0,00.0,31.2,24.2,05.0,0000.0,0008.47,0003.15,0002.12
2022-12-18 02:13:00,,0822.4,4.98,0.00,22.4,20.9,00.0,31.2,24.2,05.0,0000.0,0008.55,0003.17,0002.12
2022-12-18 02:14:00,,0822.4,5.04,0.00,22.4,20.9,00.0,31.2,24.2,05.0,0000.0,0008.62,0003.16,0002.12
2022-12-18 02:15:00,,0822.4,4.97,0.00,22.4,20.9,00.0,31.2,24.1,05.0,0000.0,0009.15,0003.16,0002.13
2022-12-18 02:16:00,,0822.4,5.02,0.00,22.3,20.9,00.0,31.2,24.1,05.0,0000.0,0009.53,0003.19,0002.16
2022-12-18 02:17:00,,0822.4,5.03,0.00,22.3,20.9,00.0,31.2,24.2,05.0,0000.0,0009.68,0003.22,0002.17
2022-12-18 02:18:00,,0822.5,4.97,0.00,22.3,20.9,00.0,31.2,24.2,05.0,0000.0,0009.14,0003.20,0002.17
2022-12-18 02:19:00,,0822.6,5.03,0.00,22.3,20.9,00.0,31.2,24.1,05.0,0000.0,0009.14,0003.21,0002.16
2022-12-18 02:20:00,,0822.6,4.95,0.00,22.3,20.9,00.0,31.2,24.1,05.0,0000.0,0009.33,0003.20,0002.14
2022-12-18 02:21:00,,0822.6,5.03,0.00,22.3,20.9,00.0,31.2,24.1,05.0,0000.0,0009.12,0003.21,0002.15
2022-12-18 02:22:00,,0822.6,5.03,0.00,22.3,21.2,00.0,31.1,24.2,05.0,0000.0,0008.91,0003.22,0002.15
2022-12-18 02:23:00,,0822.6,4.98,0.00,22.4,22.0,00.0,31.1,24.4,05.0,0000.0,0009.12,0003.26,0002.16
2022-12-18 02:24:00,,0822.6,4.98,0.00,22.5,22.3,00.0,31.2,24.5,05.0,0000.0,0009.17,0003.27,0002.17
2022-12-18 02:25:00,,0822.6,5.03,0.00,22.5,22.1,00.0,31.2,24.5,04.9,0000.0,0009.75,0003.30,0002.19
2022-12-18 02:26:00,,0822.6,4.97,0.00,22.5,21.8,00.0,31.2,24.4,05.0,0000.0,0010.23,0003.33,0002.20
2022-12-18 02:27:00,,0822.5,5.01,0.00,22.5,21.6,00.0,31.3,24.4,05.0,0000.0,0009.98,0003.30,0002.20
2022-12-18 02:28:00,,0822.4,4.99,0.00,22.5,21.5,00.0,31.3,24.4,05.0,0000.0,0009.77,0003.28,0002.20
2022-12-18 02:29:00,,0822.5,4.99,0.00,22.5,21.4,00.0,31.3,24.3,05.0,0000.0,0010.09,0003.29,0002.22
2022-12-18 02:30:00,,0822.4,5.01,0.00,22.5,21.4,00.0,31.3,24.3,05.0,0000.0,0009.75,0003.27,0002.23
2022-12-18 02:31:00,,0822.4,5.01,0.00,22.5,21.3,00.0,31.3,24.3,05.0,0000.0,0009.19,0003.29,0002.25
2022-12-18 02:32:00,,0822.4,4.98,0.00,22.5,21.3,00.0,31.3,24.3,05.0,0000.0,0009.29,0003.29,0002.27
2022-12-18 02:33:00,,0822.4,5.02,0.00,22.5,21.2,00.0,31.3,24.3,05.0,0000.0,0009.72,0003.28,0002.27
2022-12-18 02:34:00,,0822.4,4.98,0.00,22.5,21.2,00.0,31.3,24.2,05.0,0000.0,0009.88,0003.29,0002.27
2022-12-18 02:35:00,,0822.4,5.04,0.00,22.5,21.2,00.0,31.3,24.2,05.0,0000.0,0009.95,0003.32,0002.27
2022-12-18 02:36:00,,0822.4,4.95,0.00,22.5,21.1,00.0,31.3,24.2,05.0,0000.0,0009.55,0003.31,0002.27
2022-12-18 02:37:00,,0822.4,5.02,0.00,22.4,21.0,00.0,31.3,24.2,05.0,0000.0,0008.26,0003.31,0002.28
2022-12-18 02:38:00,,0822.4,4.98,0.00,22.4,21.0,00.0,31.3,24.2,05.0,0000.0,0008.21,0003.35,0002.28
2022-12-18 02:39:00,,0822.4,5.00,0.00,22.4,20.9,00.0,31.3,24.2,05.0,0000.0,0008.19,0003.37,0002.29
2022-12-18 02:40:00,,0822.4,5.04,0.00,22.4,20.9,00.0,31.3,24.1,05.0,0000.0,0008.17,0003.40,0002.30
2022-12-18 02:41:00,,0822.4,4.95,0.00,22.4,20.8,00.0,31.3,24.1,05.0,0000.0,0008.48,0003.43,0002.31
2022-12-18 02:42:00,,0822.4,5.05,0.00,22.4,20.8,00.0,31.3,24.1,05.0,0000.0,0008.56,0003.41,0002.31
2022-12-18 02:43:00,,0822.4,4.98,0.00,22.3,20.7,00.0,31.3,24.1,05.0,0000.0,0008.64,0003.43,0002.31
2022-12-18 02:44:00,,0822.4,4.99,0.00,22.3,20.9,00.0,31.2,24.1,05.0,0000.0,0008.43,0003.44,0002.34
2022-12-18 02:45:00,,0822.4,5.03,0.00,22.4,21.6,00.0,31.2,24.3,05.0,0000.0,0008.92,0003.42,0002.35
2022-12-18 02:46:00,,0822.3,4.98,0.00,22.5,22.3,00.0,31.2,24.5,04.9,0000.0,0009.27,0003.43,0002.37
2022-12-18 02:47:00,,0822.3,4.97,0.00,22.5,22.1,00.0,31.2,24.5,04.9,0000.0,0010.50,0003.48,0002.40
2022-12-18 02:48:00,,0822.3,5.04,0.00,22.5,21.9,00.0,31.3,24.4,04.9,0000.0,0010.67,0003.54,0002.42
2022-12-18 02:49:00,,0822.2,4.97,0.00,22.5,21.6,00.0,31.3,24.4,04.9,0000.0,0011.71,0003.59,0002.45
2022-12-18 02:50:00,,0822.2,5.04,0.00,22.5,21.4,00.0,31.3,24.3,04.9,0000.0,0012.27,0003.61,0002.49
2022-12-18 02:51:00,,0822.3,4.96,0.00,22.5,21.2,00.0,31.3,24.3,04.9,0000.0,0012.33,0003.63,0002.51
2022-12-18 02:52:00,,0822.3,5.04,0.00,22.5,21.1,00.0,31.3,24.3,04.9,0000.0,0012.22,0003.63,0002.53
2022-12-18 02:53:00,,0822.4,4.97,0.00,22.4,21.0,00.0,31.3,24.3,04.9,0000.0,0012.53,0003.68,0002.55
2022-12-18 02:54:00,,0822.4,5.00,0.00,22.4,20.9,00.0,31.3,24.2,04.9,0000.0,0012.44,0003.69,0002.58
2022-12-18 02:55:00,,0822.4,5.03,0.00,22.4,20.9,00.0,31.3,24.2,04.9,0000.0,0012.15,0003.70,0002.59
2022-12-18 02:56:00,,0822.4,4.95,0.00,22.4,20.8,00.0,31.3,24.2,04.9,0000.0,0012.53,0003.71,0002.59
2022-12-18 02:57:00,,0822.4,5.02,0.00,22.4,20.8,00.0,31.3,24.1,04.9,0000.0,0012.39,0003.70,0002.57
2022-12-18 02:58:00,,0822.4,5.03,0.00,22.3,20.8,00.0,31.3,24.1,04.9,0000.0,0011.35,0003.67,0002.56
2022-12-18 02:59:00,,0822.3,4.95,0.00,22.3,20.8,00.0,31.2,24.1,04.9,0000.0,0011.21,0003.62,0002.54
